This is the latest recevied weather packets stored in our database for station/object K3HM. If no packets are shown the sender has not sent any weather packets the latest 1 day(s).
| Time | Temp. | Humidity | Pressure | Rain* | Wind** | Luminosity | Snow |
|---|---|---|---|---|---|---|---|
| 1777991300 | 19.44° C | 57% | 1012.2 hPa | 0 mm | 3.13 m/s, 309° | 543 W/m² | - |
| 1777990997 | 20° C | 58% | 1012.2 hPa | 0 mm | 3.13 m/s, 277° | 552 W/m² | - |
| 1777990695 | 18.89° C | 59% | 1012.3 hPa | 0 mm | 5.81 m/s, 212° | 600 W/m² | - |
| 1777990392 | 18.89° C | 58% | 1012.5 hPa | 0 mm | 4.92 m/s, 257° | 485 W/m² | - |
| 1777990088 | 19.44° C | 58% | 1012.2 hPa | 0 mm | 6.71 m/s, 234° | 486 W/m² | - |
| 1777989785 | 18.89° C | 57% | 1012.3 hPa | 0 mm | 3.13 m/s, 256° | 538 W/m² | - |
| 1777989482 | 18.89° C | 61% | 1012.3 hPa | 0 mm | 3.58 m/s, 206° | 506 W/m² | - |
| 1777989178 | 18.89° C | 60% | 1012.5 hPa | 0 mm | 3.13 m/s, 177° | 476 W/m² | - |
| 1777988874 | 18.33° C | 60% | 1012.2 hPa | 0 mm | 3.13 m/s, 202° | 453 W/m² | - |
| 1777988572 | 18.33° C | 60% | 1012 hPa | 0 mm | 1.79 m/s, 236° | 411 W/m² | - |
| 1777988268 | 18.33° C | 61% | 1012 hPa | 0 mm | 4.02 m/s, 231° | 457 W/m² | - |
| 1777987964 | 18.33° C | 60% | 1012.2 hPa | 0 mm | 4.02 m/s, 256° | 346 W/m² | - |
| 1777987660 | 17.78° C | 63% | 1012.2 hPa | 0 mm | 3.58 m/s, 236° | 442 W/m² | - |
| 1777987358 | 17.78° C | 61% | 1012 hPa | 0 mm | 3.13 m/s, 222° | 410 W/m² | - |
| 1777987055 | 17.78° C | 60% | 1012 hPa | 0 mm | 3.58 m/s, 234° | 391 W/m² | - |
| 1777986752 | 17.78° C | 62% | 1012.2 hPa | 0 mm | 3.58 m/s, 252° | 338 W/m² | - |
| 1777986450 | 17.22° C | 62% | 1011.9 hPa | 0 mm | 4.02 m/s, 284° | 260 W/m² | - |
| 1777986148 | 17.22° C | 62% | 1012.2 hPa | 0 mm | 2.68 m/s, 246° | 284 W/m² | - |
| 1777985845 | 17.78° C | 62% | 1012.2 hPa | 0 mm | 3.58 m/s, 186° | 328 W/m² | - |
| 1777985542 | 17.78° C | 62% | 1012.3 hPa | 0 mm | 2.24 m/s, 234° | 358 W/m² | - |
| 1777985239 | 17.22° C | 62% | 1012.4 hPa | 0 mm | 4.47 m/s, 277° | 312 W/m² | - |
| 1777984935 | 17.22° C | 63% | 1012.4 hPa | 0 mm | 2.68 m/s, 205° | 290 W/m² | - |
| 1777984631 | 16.67° C | 64% | 1012.5 hPa | 0 mm | 3.13 m/s, 233° | 261 W/m² | - |
| 1777984328 | 16.67° C | 65% | 1012.3 hPa | 1.27 mm | 3.13 m/s, 242° | 240 W/m² | - |
| 1777984025 | 16.67° C | 65% | 1012.3 hPa | 1.27 mm | 2.24 m/s, 317° | 226 W/m² | - |
* Rain latest hour (hover to see other rain measurements)
** Current wind speed in m/s (hover to see current wind gust speed)